Change the Weather History Date:

Thursday, January 3, 2013

  Actual Average Record
Temperature  
Mean Temperature 33 °F -  
Max Temperature 45 °F 28 °F 53 °F (2001)
Min Temperature 21 °F 7 °F -31 °F (2004)
Degree Days  
Heating Degree Days 32    
Moisture  
Dew Point 16 °F    
Average Humidity 45    
Maximum Humidity 64    
Minimum Humidity 22    
Precipitation  
Precipitation 0.00 in 0.03 in - ()
Sea Level Pressure  
Sea Level Pressure 30.10 in    
Wind  
Wind Speed 13 mph ()    
Max Wind Speed 22 mph    
Max Gust Speed 23 mph    
Visibility 11.6 miles    
Events      
Averages and records for this station are not official NWS values.
T = Trace of Precipitation, MM = Missing Value Source: Averaged Metar Reports

Daily Weather History Graph

Daily Weather History Graph

Search for Another Location

Airport or City:

Trip Planner

Search our weather history database for the weather conditions in past years. The results will help you decide how hot, cold, wet, or windy it might be!

Date:

Astronomy

Jan. 03, 2013 Rise Set
Actual Time 8:27 AM MST 4:44 PM MST
Civil Twilight 7:50 AM MST 5:21 PM MST
Nautical Twilight 7:09 AM MST 6:02 PM MST
Astronomical Twilight 6:30 AM MST 6:41 PM MST
Moon No Moon Rise 11:03 AM MST (1/3)
Length of Visible Light 9h 31m
Length of Day
8h 16m
Waning Gibbous, 65% of the Moon is Illuminated
Jan 3
Waning Gibbous
Jan 4
Last Quarter
Jan 11
New
Jan 18
First Quarter
Jan 26
Full

Hourly Weather History & Observations

Time (MST) Temp. Windchill Dew Point Humidity Pressure Visibility Wind Dir Wind Speed Gust Speed Precip Events Conditions
12:00 AM 32.0 °F 20.5 °F 15.8 °F 51% 30.15 in 9.0 mi SW 18.4 mph - N/A   Mostly Cloudy
1:00 AM 30.2 °F 18.1 °F 14.0 °F 51% 30.13 in 9.0 mi WSW 18.4 mph - N/A   Clear
2:00 AM 32.0 °F 21.2 °F 15.8 °F 51% 30.10 in 9.0 mi SW 16.1 mph 23.0 mph N/A   Clear
3:00 AM 33.8 °F 24.3 °F 14.0 °F 44% 30.10 in 9.0 mi SW 13.8 mph 21.9 mph N/A   Clear
4:00 AM 32.0 °F 21.2 °F 14.0 °F 48% 30.10 in 9.0 mi WSW 16.1 mph - N/A   Clear
5:00 AM 29 °F - 13 °F 37% 30.12 in 10 mi WSW 20.7 mph - -  
5:00 AM 30.2 °F 17.1 °F 14.0 °F 51% 30.11 in 9.0 mi WSW 21.9 mph - N/A   Clear
6:00 AM 30.2 °F 18.5 °F 14.0 °F 51% 30.12 in 15.0 mi WSW 17.3 mph 23.0 mph N/A   Partly Cloudy
7:00 AM 23.0 °F 13.1 °F 12.2 °F 63% 30.14 in 15.0 mi SW 9.2 mph - N/A   Partly Cloudy
8:00 AM 28.4 °F 19.7 °F 12.2 °F 51% 30.11 in 40.0 mi SSW 9.2 mph - N/A   Scattered Clouds
9:00 AM 33.8 °F 23.5 °F 14.0 °F 44% 30.11 in 40.0 mi WSW 16.1 mph 23.0 mph N/A   Scattered Clouds
9:47 AM 37.4 °F 29.3 °F 14.0 °F 38% 30.12 in 40.0 mi West 12.7 mph - N/A   Partly Cloudy
10:00 AM 39.2 °F 29.8 °F 15.8 °F 39% 30.11 in 40.0 mi West 18.4 mph - N/A   Scattered Clouds
11:00 AM 42 °F - 16 °F 22% 30.12 in 10 mi West 9.2 mph - -  
11:00 AM 42.8 °F 37.0 °F 15.8 °F 34% 30.12 in 40.0 mi West 10.4 mph - N/A   Scattered Clouds
12:00 PM 42.8 °F 34.8 °F 17.6 °F 36% 30.09 in 40.0 mi West 17.3 mph - N/A   Partly Cloudy
1:00 PM 44.6 °F 38.4 °F 19.4 °F 37% 30.08 in 40.0 mi West 12.7 mph - N/A   Clear
2:00 PM 46.4 °F 40.4 °F 21.2 °F 37% 30.06 in 40.0 mi West 13.8 mph - N/A   Partly Cloudy
3:00 PM 44.6 °F 38.8 °F 21.2 °F 39% 30.07 in 40.0 mi West 11.5 mph - N/A   Clear
4:00 PM 41.0 °F 34.3 °F 17.6 °F 39% 30.09 in 40.0 mi West 11.5 mph - N/A   Scattered Clouds
5:00 PM 37 °F - 15 °F 27% 30.10 in 10 mi SSW 6.9 mph - -  
5:00 PM 37.4 °F 32.1 °F 14.0 °F 38% 30.10 in 40.0 mi SW 6.9 mph - N/A   Mostly Cloudy
6:00 PM 30.2 °F 22.6 °F 17.6 °F 60% 30.09 in 15.0 mi SSW 8.1 mph - N/A   Mostly Cloudy
7:00 PM 28.4 °F 20.4 °F 15.8 °F 59% 30.11 in 15.0 mi SW 8.1 mph - N/A   Scattered Clouds
8:00 PM 30.2 °F 22.6 °F 15.8 °F 55% 30.09 in 15.0 mi SSW 8.1 mph - N/A   Partly Cloudy
9:00 PM 24.8 °F 15.3 °F 14.0 °F 64% 30.07 in 15.0 mi South 9.2 mph - N/A   Partly Cloudy
10:00 PM 30.2 °F 20.2 °F 15.8 °F 55% 30.05 in 15.0 mi WSW 12.7 mph - N/A   Partly Cloudy
11:00 PM 34 °F - 17 °F 35% 30.04 in 10 mi West 13.8 mph - -  
11:00 PM 33.8 °F 24.8 °F 15.8 °F 48% 30.04 in 9.0 mi West 12.7 mph 19.6 mph N/A   Clear